ProjectID,Date,Electric Generation,Electric Utility Import,Facility Electric Load
,YYYY-MM-DD,kW,kW,kW
206,2014-12-04,225.375,,225.375
206,2014-12-05,150.29166666666666,,150.29166666666666
206,2014-12-06,17.583333333333332,,17.583333333333332
206,2014-12-07,291.4166666666667,,291.4166666666667
206,2014-12-08,152.29166666666666,,152.29166666666666
206,2014-12-09,41.375,,41.375
206,2014-12-10,0.0,,0.0
206,2014-12-11,0.0,,0.0
206,2014-12-12,0.0,,0.0
206,2014-12-13,0.0,,0.0
206,2014-12-14,34.083333333333336,,34.083333333333336
206,2014-12-15,24.583333333333332,,24.583333333333332
206,2014-12-16,33.666666666666664,,33.666666666666664
206,2014-12-17,39.916666666666664,,39.916666666666664
206,2014-12-18,1.7083333333333333,,1.7083333333333333
206,2014-12-19,8.041666666666666,,8.041666666666666
206,2014-12-20,96.29166666666667,,96.29166666666667
206,2014-12-21,83.33333333333333,,83.33333333333333
206,2014-12-22,53.666666666666664,,53.666666666666664
206,2014-12-23,41.666666666666664,,41.666666666666664
206,2014-12-24,31.0,,31.0
206,2014-12-25,57.291666666666664,,57.291666666666664
206,2014-12-26,90.20833333333333,,90.20833333333333
206,2014-12-27,43.125,,43.125
206,2014-12-28,64.125,,64.125
206,2014-12-29,274.2916666666667,,274.2916666666667
206,2014-12-30,329.6666666666667,,329.6666666666667
206,2014-12-31,161.875,,161.875
206,2015-01-01,0.0,,0.0
206,2015-01-02,0.0,,0.0
206,2015-01-03,41.208333333333336,,41.208333333333336
206,2015-01-04,10.125,,10.125
206,2015-01-05,88.70833333333333,,88.70833333333333
206,2015-01-06,54.416666666666664,,54.416666666666664
206,2015-01-07,31.041666666666668,,31.041666666666668
206,2015-01-08,0.0,,0.0
206,2015-01-09,64.83333333333333,,64.83333333333333
206,2015-01-10,252.70833333333334,,252.70833333333334
206,2015-01-11,61.166666666666664,,61.166666666666664
206,2015-01-12,3.7083333333333335,,3.7083333333333335
206,2015-01-13,9.333333333333334,,9.333333333333334
206,2015-01-14,22.458333333333332,,22.458333333333332
206,2015-01-15,50.041666666666664,,50.041666666666664
206,2015-01-16,101.5,,101.5
206,2015-01-17,0.0,,0.0
206,2015-01-18,0.0,,0.0
206,2015-01-19,3.0833333333333335,,3.0833333333333335
206,2015-01-20,49.166666666666664,,49.166666666666664
206,2015-01-21,122.70833333333333,,122.70833333333333
206,2015-01-22,98.58333333333333,,98.58333333333333
206,2015-01-23,89.79166666666667,,89.79166666666667
206,2015-01-24,202.29166666666666,,202.29166666666666
206,2015-01-25,64.625,,64.625
206,2015-01-26,77.45833333333333,,77.45833333333333
206,2015-01-27,240.04166666666666,,240.04166666666666
206,2015-01-28,337.1666666666667,,337.1666666666667
206,2015-01-29,197.5,,197.5
206,2015-01-30,11.583333333333334,,11.583333333333334
206,2015-01-31,25.75,,25.75
206,2015-02-01,31.666666666666668,,31.666666666666668
206,2015-02-02,0.0,,0.0
206,2015-02-03,120.875,,120.875
206,2015-02-04,42.75,,42.75
206,2015-02-05,7.708333333333333,,7.708333333333333
206,2015-02-06,61.083333333333336,,61.083333333333336
206,2015-02-07,12.875,,12.875
206,2015-02-08,36.708333333333336,,36.708333333333336
206,2015-02-09,17.875,,17.875
206,2015-02-10,105.58333333333333,,105.58333333333333
206,2015-02-11,293.9166666666667,,293.9166666666667
206,2015-02-12,12.75,,12.75
206,2015-02-13,29.541666666666668,,29.541666666666668
206,2015-02-14,5.958333333333333,,5.958333333333333
206,2015-02-15,11.416666666666666,,11.416666666666666
206,2015-02-16,13.333333333333334,,13.333333333333334
206,2015-02-17,9.291666666666666,,9.291666666666666
206,2015-02-18,17.291666666666668,,17.291666666666668
206,2015-02-19,8.291666666666666,,8.291666666666666
206,2015-02-20,52.666666666666664,,52.666666666666664
206,2015-02-21,27.666666666666668,,27.666666666666668
206,2015-02-22,58.833333333333336,,58.833333333333336
206,2015-02-23,119.83333333333333,,119.83333333333333
206,2015-02-24,159.58333333333334,,159.58333333333334
206,2015-02-25,207.66666666666666,,207.66666666666666
206,2015-02-26,223.04166666666666,,223.04166666666666
206,2015-02-27,460.25,,460.25
206,2015-02-28,508.0833333333333,,508.0833333333333
206,2015-03-01,294.875,,294.875
206,2015-03-02,187.83333333333334,,187.83333333333334
206,2015-03-03,317.75,,317.75
206,2015-03-04,150.0,,150.0
206,2015-03-05,361.3333333333333,,361.3333333333333
206,2015-03-06,577.25,,577.25
206,2015-03-07,248.625,,248.625
206,2015-03-08,232.125,,232.125
206,2015-03-09,460.25,,460.25
206,2015-03-10,389.0416666666667,,389.0416666666667
206,2015-03-11,391.5416666666667,,391.5416666666667
206,2015-03-12,598.7083333333334,,598.7083333333334
206,2015-03-13,244.66666666666666,,244.66666666666666
206,2015-03-14,117.625,,117.625
206,2015-03-15,15.625,,15.625
206,2015-03-16,284.5833333333333,,284.5833333333333
206,2015-03-17,238.45833333333334,,238.45833333333334
206,2015-03-18,591.5416666666666,,591.5416666666666
206,2015-03-19,620.9166666666666,,620.9166666666666
206,2015-03-20,392.4583333333333,,392.4583333333333
206,2015-03-21,141.41666666666666,,141.41666666666666
206,2015-03-22,615.25,,615.25
206,2015-03-23,641.9583333333334,,641.9583333333334
206,2015-03-24,620.7083333333334,,620.7083333333334
206,2015-03-25,545.2083333333334,,545.2083333333334
206,2015-03-26,111.45833333333333,,111.45833333333333
206,2015-03-27,131.45833333333334,,131.45833333333334
206,2015-03-28,415.6666666666667,,415.6666666666667
206,2015-03-29,647.7916666666666,,647.7916666666666
206,2015-03-30,119.83333333333333,,119.83333333333333
206,2015-03-31,634.8333333333334,,634.8333333333334
206,2015-04-01,649.3333333333334,,649.3333333333334
206,2015-04-02,450.375,,450.375
206,2015-04-03,510.0,,510.0
206,2015-04-04,262.9583333333333,,262.9583333333333
206,2015-04-05,570.9583333333334,,570.9583333333334
206,2015-04-06,101.04166666666667,,101.04166666666667
206,2015-04-07,480.625,,480.625
206,2015-04-08,298.7083333333333,,298.7083333333333
206,2015-04-09,213.0,,213.0
206,2015-04-10,142.20833333333334,,142.20833333333334
206,2015-04-11,304.4583333333333,,304.4583333333333
206,2015-04-12,650.3333333333334,,650.3333333333334
206,2015-04-13,619.5416666666666,,619.5416666666666
206,2015-04-14,553.875,,553.875
206,2015-04-15,672.4583333333334,,672.4583333333334
206,2015-04-16,658.9166666666666,,658.9166666666666
206,2015-04-17,419.3333333333333,,419.3333333333333
206,2015-04-18,498.6666666666667,,498.6666666666667
206,2015-04-19,683.125,,683.125
206,2015-04-20,130.45833333333334,,130.45833333333334
206,2015-04-21,300.2083333333333,,300.2083333333333
206,2015-04-22,231.58333333333334,,231.58333333333334
206,2015-04-23,363.875,,363.875
206,2015-04-24,270.3333333333333,,270.3333333333333
206,2015-04-25,431.875,,431.875
206,2015-04-26,397.0416666666667,,397.0416666666667
206,2015-04-27,233.58333333333334,,233.58333333333334
206,2015-04-28,579.0,,579.0
206,2015-04-29,676.5416666666666,,676.5416666666666
206,2015-04-30,686.1666666666666,,686.1666666666666
206,2015-05-01,458.4583333333333,,458.4583333333333
206,2015-05-02,673.375,,673.375
206,2015-05-03,642.7916666666666,,642.7916666666666
206,2015-05-04,563.5416666666666,,563.5416666666666
206,2015-05-05,605.9583333333334,,605.9583333333334
206,2015-05-06,655.8333333333334,,655.8333333333334
206,2015-05-07,668.75,,668.75
206,2015-05-08,639.5,,639.5
206,2015-05-09,415.1666666666667,,415.1666666666667
206,2015-05-10,235.33333333333334,,235.33333333333334
206,2015-05-11,267.5,,267.5
206,2015-05-12,256.9166666666667,,256.9166666666667
206,2015-05-13,431.75,,431.75
206,2015-05-14,711.375,,711.375
206,2015-05-15,468.8333333333333,,468.8333333333333
206,2015-05-16,330.8333333333333,,330.8333333333333
206,2015-05-17,533.4166666666666,,533.4166666666666
206,2015-05-18,593.3333333333334,,593.3333333333334
206,2015-05-19,456.7083333333333,,456.7083333333333
206,2015-05-20,523.3333333333334,,523.3333333333334
206,2015-05-21,650.7083333333334,,650.7083333333334
206,2015-05-22,575.2083333333334,,575.2083333333334
206,2015-05-23,667.0833333333334,,667.0833333333334
206,2015-05-24,576.5,,576.5
206,2015-05-25,188.45833333333334,,188.45833333333334
206,2015-05-26,616.5833333333334,,616.5833333333334
206,2015-05-27,333.2083333333333,,333.2083333333333
206,2015-05-28,184.375,,184.375
206,2015-05-29,654.9166666666666,,654.9166666666666
206,2015-05-30,550.0416666666666,,550.0416666666666
206,2015-05-31,255.45833333333334,,255.45833333333334
206,2015-06-01,210.79166666666666,,210.79166666666666
206,2015-06-02,264.4583333333333,,264.4583333333333
206,2015-06-03,705.75,,705.75
206,2015-06-04,674.25,,674.25
206,2015-06-05,471.2916666666667,,471.2916666666667
206,2015-06-06,720.0,,720.0
206,2015-06-07,628.625,,628.625
206,2015-06-08,231.625,,231.625
206,2015-06-09,218.375,,218.375
206,2015-06-10,557.25,,557.25
206,2015-06-11,560.7916666666666,,560.7916666666666
206,2015-06-12,107.79166666666667,,107.79166666666667
206,2015-06-13,518.4583333333334,,518.4583333333334
206,2015-06-14,493.625,,493.625
206,2015-06-15,172.125,,172.125
206,2015-06-16,261.6666666666667,,261.6666666666667
206,2015-06-17,683.9583333333334,,683.9583333333334
206,2015-06-18,533.25,,533.25
206,2015-06-19,441.0833333333333,,441.0833333333333
206,2015-06-20,684.8333333333334,,684.8333333333334
206,2015-06-21,283.0,,283.0
206,2015-06-22,533.75,,533.75
206,2015-06-23,304.5416666666667,,304.5416666666667
206,2015-06-24,702.25,,702.25
206,2015-06-25,616.875,,616.875
206,2015-06-26,637.75,,637.75
206,2015-06-27,476.9583333333333,,476.9583333333333
206,2015-06-28,166.04166666666666,,166.04166666666666
206,2015-06-29,310.375,,310.375
206,2015-06-30,407.2083333333333,,407.2083333333333
206,2015-07-01,245.08333333333334,,245.08333333333334
206,2015-07-02,671.5,,671.5
206,2015-07-03,677.4166666666666,,677.4166666666666
206,2015-07-04,315.5,,315.5
206,2015-07-05,585.2916666666666,,585.2916666666666
206,2015-07-06,567.625,,567.625
206,2015-07-07,488.4166666666667,,488.4166666666667
206,2015-07-08,548.5,,548.5
206,2015-07-09,295.0833333333333,,295.0833333333333
206,2015-07-10,636.9583333333334,,636.9583333333334
206,2015-07-11,642.1666666666666,,642.1666666666666
206,2015-07-12,599.2916666666666,,599.2916666666666
206,2015-07-13,606.7083333333334,,606.7083333333334
206,2015-07-14,349.7916666666667,,349.7916666666667
206,2015-07-15,459.4166666666667,,459.4166666666667
206,2015-07-16,674.375,,674.375
206,2015-07-17,404.0416666666667,,404.0416666666667
206,2015-07-18,348.75,,348.75
206,2015-07-19,415.7916666666667,,415.7916666666667
206,2015-07-20,655.9166666666666,,655.9166666666666
206,2015-07-21,348.4583333333333,,348.4583333333333
206,2015-07-22,392.2083333333333,,392.2083333333333
206,2015-07-23,448.4583333333333,,448.4583333333333
206,2015-07-24,477.2083333333333,,477.2083333333333
206,2015-07-25,494.375,,494.375
206,2015-07-26,368.4166666666667,,368.4166666666667
206,2015-07-27,620.25,,620.25
206,2015-07-28,596.9583333333334,,596.9583333333334
206,2015-07-29,599.9583333333334,,599.9583333333334
206,2015-07-30,393.5833333333333,,393.5833333333333
206,2015-07-31,613.1666666666666,,613.1666666666666
206,2015-08-01,516.4583333333334,,516.4583333333334
206,2015-08-02,594.2083333333334,,594.2083333333334
206,2015-08-03,265.75,,265.75
206,2015-08-04,513.9166666666666,,513.9166666666666
206,2015-08-05,368.8333333333333,,368.8333333333333
206,2015-08-06,480.7083333333333,,480.7083333333333
206,2015-08-07,521.125,,521.125
206,2015-08-08,480.625,,480.625
206,2015-08-09,634.4166666666666,,634.4166666666666
206,2015-08-10,509.2083333333333,,509.2083333333333
206,2015-08-11,246.08333333333334,,246.08333333333334
206,2015-08-12,277.4166666666667,,277.4166666666667
206,2015-08-13,491.375,,491.375
206,2015-08-14,410.7916666666667,,410.7916666666667
206,2015-08-15,461.4583333333333,,461.4583333333333
206,2015-08-16,577.375,,577.375
206,2015-08-17,576.625,,576.625
206,2015-08-18,549.25,,549.25
206,2015-08-19,96.04166666666667,,96.04166666666667
206,2015-08-20,420.1666666666667,,420.1666666666667
206,2015-08-21,407.4166666666667,,407.4166666666667
206,2015-08-22,556.2083333333334,,556.2083333333334
206,2015-08-23,337.25,,337.25
206,2015-08-24,406.1666666666667,,406.1666666666667
206,2015-08-25,536.75,,536.75
206,2015-08-26,372.3333333333333,,372.3333333333333
206,2015-08-27,413.0416666666667,,413.0416666666667
206,2015-08-28,511.3333333333333,,511.3333333333333
206,2015-08-29,390.0833333333333,,390.0833333333333
206,2015-08-30,537.375,,537.375
206,2015-08-31,381.25,,381.25
206,2015-09-01,529.2916666666666,,529.2916666666666
206,2015-09-02,248.08333333333334,,248.08333333333334
206,2015-09-03,307.5,,307.5
206,2015-09-04,588.4166666666666,,588.4166666666666
206,2015-09-05,491.7916666666667,,491.7916666666667
206,2015-09-06,515.25,,515.25
206,2015-09-07,524.625,,524.625
206,2015-09-08,230.0,,230.0
206,2015-09-09,297.9166666666667,,297.9166666666667
206,2015-09-10,401.8333333333333,,401.8333333333333
206,2015-09-11,547.5416666666666,,547.5416666666666
206,2015-09-12,78.25,,78.25
206,2015-09-13,220.41666666666666,,220.41666666666666
206,2015-09-14,221.54166666666666,,221.54166666666666
206,2015-09-15,546.875,,546.875
206,2015-09-16,520.7916666666666,,520.7916666666666
206,2015-09-17,526.7083333333334,,526.7083333333334
206,2015-09-18,508.0,,508.0
206,2015-09-19,361.4166666666667,,361.4166666666667
206,2015-09-20,449.3333333333333,,449.3333333333333
206,2015-09-21,481.9583333333333,,481.9583333333333
206,2015-09-22,529.4583333333334,,529.4583333333334
206,2015-09-23,527.0416666666666,,527.0416666666666
206,2015-09-24,531.0833333333334,,531.0833333333334
206,2015-09-25,375.625,,375.625
206,2015-09-26,545.375,,545.375
206,2015-09-27,514.75,,514.75
206,2015-09-28,0.0,,0.0
206,2015-09-29,0.0,,0.0
206,2015-09-30,62.708333333333336,,62.708333333333336
206,2015-10-01,511.4166666666667,,511.4166666666667
206,2015-10-02,451.9166666666667,,451.9166666666667
206,2015-10-03,456.625,,456.625
206,2015-10-04,413.2916666666667,,413.2916666666667
206,2015-10-05,382.875,,382.875
206,2015-10-06,128.70833333333334,,128.70833333333334
206,2015-10-07,247.29166666666666,,247.29166666666666
206,2015-10-08,425.2916666666667,,425.2916666666667
206,2015-10-09,22.791666666666668,,22.791666666666668
206,2015-10-10,395.5416666666667,,395.5416666666667
206,2015-10-11,282.5833333333333,,282.5833333333333
206,2015-10-12,453.4583333333333,,453.4583333333333
206,2015-10-13,102.41666666666667,,102.41666666666667
206,2015-10-14,174.66666666666666,,174.66666666666666
206,2015-10-15,306.1666666666667,,306.1666666666667
206,2015-10-16,122.33333333333333,,122.33333333333333
206,2015-10-17,205.5,,205.5
206,2015-10-18,149.54166666666666,,149.54166666666666
206,2015-10-19,262.0416666666667,,262.0416666666667
206,2015-10-20,82.875,,82.875
206,2015-10-21,148.75,,148.75
206,2015-10-22,211.95833333333334,,211.95833333333334
206,2015-10-23,160.79166666666666,,160.79166666666666
206,2015-10-24,149.16666666666666,,149.16666666666666
206,2015-10-25,66.58333333333333,,66.58333333333333
206,2015-10-26,355.3333333333333,,355.3333333333333
206,2015-10-27,388.625,,388.625
206,2015-10-28,31.916666666666668,,31.916666666666668
206,2015-10-29,183.16666666666666,,183.16666666666666
206,2015-10-30,183.875,,183.875
206,2015-10-31,202.79166666666666,,202.79166666666666
206,2015-11-01,85.79166666666667,,85.79166666666667
206,2015-11-02,127.125,,127.125
206,2015-11-03,333.9583333333333,,333.9583333333333
206,2015-11-04,317.7083333333333,,317.7083333333333
206,2015-11-05,138.66666666666666,,138.66666666666666
206,2015-11-06,80.45833333333333,,80.45833333333333
206,2015-11-07,350.2083333333333,,350.2083333333333
206,2015-11-08,372.7916666666667,,372.7916666666667
206,2015-11-09,348.2083333333333,,348.2083333333333
206,2015-11-10,249.04166666666666,,249.04166666666666
206,2015-11-11,220.79166666666666,,220.79166666666666
206,2015-11-12,39.75,,39.75
206,2015-11-13,37.75,,37.75
206,2015-11-14,79.79166666666667,,79.79166666666667
206,2015-11-15,183.58333333333334,,183.58333333333334
206,2015-11-16,287.625,,287.625
206,2015-11-17,368.375,,368.375
206,2015-11-18,249.08333333333334,,249.08333333333334
206,2015-11-19,85.45833333333333,,85.45833333333333
206,2015-11-20,169.91666666666666,,169.91666666666666
206,2015-11-21,127.54166666666667,,127.54166666666667
206,2015-11-22,242.04166666666666,,242.04166666666666
206,2015-11-23,351.375,,351.375
206,2015-11-24,27.791666666666668,,27.791666666666668
206,2015-11-25,167.33333333333334,,167.33333333333334
206,2015-11-26,154.41666666666666,,154.41666666666666
206,2015-11-27,41.583333333333336,,41.583333333333336
206,2015-11-28,48.208333333333336,,48.208333333333336
206,2015-11-29,200.20833333333334,,200.20833333333334
206,2015-11-30,91.91666666666667,,91.91666666666667
206,2015-12-01,54.958333333333336,,54.958333333333336
206,2015-12-02,15.041666666666666,,15.041666666666666
206,2015-12-03,34.916666666666664,,34.916666666666664
206,2015-12-04,37.041666666666664,,37.041666666666664
206,2015-12-05,69.58333333333333,,69.58333333333333
206,2015-12-06,230.04166666666666,,230.04166666666666
206,2015-12-07,40.416666666666664,,40.416666666666664
206,2015-12-08,109.95833333333333,,109.95833333333333
206,2015-12-09,266.9583333333333,,266.9583333333333
206,2015-12-10,92.25,,92.25
206,2015-12-11,184.20833333333334,,184.20833333333334
206,2015-12-12,61.625,,61.625
206,2015-12-13,99.16666666666667,,99.16666666666667
206,2015-12-14,56.916666666666664,,56.916666666666664
206,2015-12-15,22.333333333333332,,22.333333333333332
206,2015-12-16,70.16666666666667,,70.16666666666667
206,2015-12-17,17.583333333333332,,17.583333333333332
206,2015-12-18,44.208333333333336,,44.208333333333336
206,2015-12-19,82.08333333333333,,82.08333333333333
206,2015-12-20,30.666666666666668,,30.666666666666668
206,2015-12-21,25.416666666666668,,25.416666666666668
206,2015-12-22,18.458333333333332,,18.458333333333332
206,2015-12-23,109.70833333333333,,109.70833333333333
206,2015-12-24,159.125,,159.125
206,2015-12-25,35.041666666666664,,35.041666666666664
206,2015-12-26,219.95833333333334,,219.95833333333334
206,2015-12-27,12.583333333333334,,12.583333333333334
206,2015-12-28,42.75,,42.75
206,2015-12-29,45.166666666666664,,45.166666666666664
206,2015-12-30,3.2916666666666665,,3.2916666666666665
206,2015-12-31,39.875,,39.875
206,2016-01-01,52.541666666666664,,52.541666666666664
206,2016-01-02,52.333333333333336,,52.333333333333336
206,2016-01-03,28.958333333333332,,28.958333333333332
206,2016-01-04,244.66666666666666,,244.66666666666666
206,2016-01-05,315.875,,315.875
206,2016-01-06,326.625,,326.625
206,2016-01-07,217.66666666666666,,217.66666666666666
206,2016-01-08,210.45833333333334,,210.45833333333334
206,2016-01-09,81.125,,81.125
206,2016-01-10,42.416666666666664,,42.416666666666664
206,2016-01-11,237.45833333333334,,237.45833333333334
206,2016-01-12,44.375,,44.375
206,2016-01-13,285.875,,285.875
206,2016-01-14,109.25,,109.25
206,2016-01-15,72.79166666666667,,72.79166666666667
206,2016-01-16,26.458333333333332,,26.458333333333332
206,2016-01-17,112.70833333333333,,112.70833333333333
206,2016-01-18,86.29166666666667,,86.29166666666667
206,2016-01-19,92.375,,92.375
206,2016-01-20,357.375,,357.375
206,2016-01-21,243.95833333333334,,243.95833333333334
206,2016-01-22,322.5416666666667,,322.5416666666667
206,2016-01-23,317.0416666666667,,317.0416666666667
206,2016-01-24,239.58333333333334,,239.58333333333334
206,2016-01-25,195.04166666666666,,195.04166666666666
206,2016-01-26,39.333333333333336,,39.333333333333336
206,2016-01-27,139.08333333333334,,139.08333333333334
206,2016-01-28,95.16666666666667,,95.16666666666667
206,2016-01-29,28.666666666666668,,28.666666666666668
206,2016-01-30,14.958333333333334,,14.958333333333334
206,2016-01-31,109.33333333333333,,109.33333333333333
206,2016-02-01,251.66666666666666,,251.66666666666666
206,2016-02-02,118.33333333333333,,118.33333333333333
206,2016-02-03,38.125,,38.125
206,2016-02-04,165.04166666666666,,165.04166666666666
206,2016-02-05,272.5833333333333,,272.5833333333333
206,2016-02-06,108.54166666666667,,108.54166666666667
206,2016-02-07,97.66666666666667,,97.66666666666667
206,2016-02-08,183.04166666666666,,183.04166666666666
206,2016-02-09,147.54166666666666,,147.54166666666666
206,2016-02-10,3.0833333333333335,,3.0833333333333335
206,2016-02-11,5.708333333333333,,5.708333333333333
206,2016-02-12,24.583333333333332,,24.583333333333332
206,2016-02-13,1.7916666666666667,,1.7916666666666667
206,2016-02-14,10.916666666666666,,10.916666666666666
206,2016-02-15,10.833333333333334,,10.833333333333334
206,2016-02-16,0.0,,0.0
206,2016-02-17,9.125,,9.125
206,2016-02-18,55.166666666666664,,55.166666666666664
206,2016-02-19,8.958333333333334,,8.958333333333334
206,2016-02-20,24.791666666666668,,24.791666666666668
206,2016-02-21,74.5,,74.5
206,2016-02-22,261.6666666666667,,261.6666666666667
206,2016-02-23,66.20833333333333,,66.20833333333333
206,2016-02-24,0.0,,0.0
206,2016-02-25,0.0,,0.0
206,2016-02-26,0.0,,0.0
206,2016-02-27,0.0,,0.0
206,2016-02-28,0.0,,0.0
206,2016-02-29,0.0,,0.0
206,2016-03-01,0.0,,0.0
206,2016-03-02,0.0,,0.0
206,2016-03-03,0.0,,0.0
206,2016-03-04,0.0,,0.0
206,2016-03-05,0.0,,0.0
206,2016-03-06,0.0,,0.0
206,2016-03-07,0.0,,0.0
206,2016-03-08,0.0,,0.0
206,2016-03-09,0.0,,0.0
206,2016-03-10,3.9166666666666665,,3.9166666666666665
206,2016-03-11,271.8333333333333,,271.8333333333333
206,2016-03-12,571.9583333333334,,571.9583333333334
206,2016-03-13,545.9166666666666,,545.9166666666666
206,2016-03-14,60.833333333333336,,60.833333333333336
206,2016-03-15,143.54166666666666,,143.54166666666666
206,2016-03-16,262.8333333333333,,262.8333333333333
206,2016-03-17,372.7083333333333,,372.7083333333333
206,2016-03-18,460.5,,460.5
206,2016-03-19,616.25,,616.25
206,2016-03-20,598.1666666666666,,598.1666666666666
206,2016-03-21,568.7083333333334,,568.7083333333334
206,2016-03-22,365.9583333333333,,365.9583333333333
206,2016-03-23,199.20833333333334,,199.20833333333334
206,2016-03-24,75.5,,75.5
206,2016-03-25,52.041666666666664,,52.041666666666664
206,2016-03-26,613.7916666666666,,613.7916666666666
206,2016-03-27,571.5833333333334,,571.5833333333334
206,2016-03-28,82.91666666666667,,82.91666666666667
206,2016-03-29,567.9583333333334,,567.9583333333334
206,2016-03-30,572.125,,572.125
206,2016-03-31,110.875,,110.875
206,2016-04-01,86.33333333333333,,86.33333333333333
206,2016-04-02,290.2083333333333,,290.2083333333333
206,2016-04-03,444.9583333333333,,444.9583333333333
206,2016-04-04,391.125,,391.125
206,2016-04-05,362.0,,362.0
206,2016-04-06,90.91666666666667,,90.91666666666667
206,2016-04-07,76.91666666666667,,76.91666666666667
206,2016-04-08,116.54166666666667,,116.54166666666667
206,2016-04-09,235.08333333333334,,235.08333333333334
206,2016-04-10,333.25,,333.25
206,2016-04-11,32.291666666666664,,32.291666666666664
206,2016-04-12,124.70833333333333,,124.70833333333333
206,2016-04-13,232.58333333333334,,232.58333333333334
206,2016-04-14,333.5833333333333,,333.5833333333333
206,2016-04-15,539.3333333333334,,539.3333333333334
206,2016-04-16,651.1666666666666,,651.1666666666666
206,2016-04-17,634.125,,634.125
206,2016-04-18,557.5,,557.5
206,2016-04-19,640.875,,640.875
206,2016-04-20,668.1666666666666,,668.1666666666666
206,2016-04-21,620.9583333333334,,620.9583333333334
206,2016-04-22,187.70833333333334,,187.70833333333334
206,2016-04-23,509.4583333333333,,509.4583333333333
206,2016-04-24,676.7083333333334,,676.7083333333334
206,2016-04-25,564.0,,564.0
206,2016-04-26,281.8333333333333,,281.8333333333333
206,2016-04-27,708.4583333333334,,708.4583333333334
206,2016-04-28,662.9166666666666,,662.9166666666666
206,2016-04-29,671.8333333333334,,671.8333333333334